[[{"header":{"parameterUnit":"m.s-1","parameterCategory":1,"la1":30.2991,"la2":30.254,"lo1":-89.0895,"lo2":-89.0444,"dy":0.0017,"dx":0.0017,"nx":28,"ny":28,"refTime":"2024-07-12T21:00:00:Z","depth":0,"parameterNumber":2,"parameterNumberName":"U-component_of_WINDS"},"data":[0,0,0,0,0,0,0,0,0,0,0,0,0,0,0,0,0,0,0,0,0,0,0,0,0,0,0,0,0,0,0,0,0,0,0,0,0,0,0,0,0,0,0,0,0,0,0,0,0,0,0,0,0,0,0,0,0,0,3.9033,3.9034,0,3.9141,3.9142,3.9143,3.9107,3.9105,3.9102,3.91,3.9206,3.9211,3.9216,0,0,0,0,0,0,0,0,0,0,0,0,0,3.8789,3.8794,3.9033,3.9034,3.9035,3.9141,3.9142,3.9143,3.9107,3.9105,3.9102,3.9099,3.9205,3.921,3.9216,0,0,0,0,0,0,0,0,0,0,0,0,0,3.8896,3.8795,3.9032,3.903,3.9031,3.914,3.9142,3.9144,3.9108,3.9104,3.9101,3.9098,3.9203,3.921,3.9217,3.9334,0,0,3.924,3.9243,0,0,0,0,0,0,0,0,3.889,3.8905,3.9029,3.9031,3.9032,3.9107,3.9095,3.9207,3.9109,3.9079,3.91,3.9096,3.9176,3.9185,3.9213,3.9339,3.9343,3.9241,3.9245,3.9249,3.9251,0,0,0,0,0,0,0,3.8882,3.89,3.9075,3.9031,3.9033,3.9022,3.9033,3.9116,3.9145,3.9081,3.9079,3.9092,3.9176,3.9206,3.9215,3.9345,3.9241,3.9247,3.9252,3.9255,3.9567,3.9571,0,0,0,0,0,0,3.8875,3.8894,3.9072,3.9078,3.8951,3.9029,3.9042,3.9086,3.9144,3.915,3.9095,3.909,3.9195,3.9206,3.9219,3.9356,3.9249,3.9256,3.926,3.9564,3.9568,3.9572,0,0,0,0,0,0,3.887,3.8891,3.9067,3.8986,3.9007,3.9037,3.9087,3.909,3.912,3.9155,3.916,3.9121,3.9192,3.9208,3.9305,3.9359,3.9259,3.9266,3.9559,3.9565,3.957,3.9633,0,0,0,0,0,0,3.8863,3.889,3.8936,3.8987,3.9012,3.9154,3.9091,3.9095,3.9134,3.9128,3.918,3.9186,3.9191,3.9294,3.9312,3.9368,3.9272,3.9554,3.9562,3.9569,3.9626,3.964,3.9652,0,0,0,0,0,3.8855,3.8949,3.8938,3.896,3.907,3.9157,3.9171,3.9176,3.9139,3.9184,3.9206,3.9184,3.9351,3.9304,3.9325,3.9383,3.9551,3.956,3.9568,3.962,3.9637,3.9652,0,0,0,0,0,0,3.8903,3.8956,3.8945,3.9059,3.9104,3.9151,3.9208,3.9195,3.925,3.9243,3.9246,3.9258,3.9356,3.938,3.9327,3.9497,3.9445,3.9458,3.9478,3.9494,3.9507,3.9498,3.9278,0,0,0,0,0,3.8927,3.8994,3.9037,3.9133,3.9156,3.9179,3.9217,3.9217,3.9263,3.9281,3.931,3.9354,3.9416,3.9457,3.9516,3.963,3.9639,3.968,3.9693,3.9704,3.9714,3.9772,3.979,3.9601,3.96,3.96,0,0,3.8977,3.9014,3.9056,3.9144,3.9179,3.9246,3.9195,3.9269,3.9318,3.9292,3.9384,3.9407,3.9457,3.9561,3.9609,3.9584,3.9768,3.9715,3.9723,3.9727,3.9783,3.9801,3.9816,3.9606,3.9605,3.9604,0,0,3.9101,3.9138,3.9221,3.9257,3.931,3.9324,3.9344,3.9393,3.9407,3.9501,3.9481,3.9539,3.9647,3.9682,3.9714,3.985,3.983,3.9869,3.9936,3.9992,4.0007,4.002,4.0065,4.0082,3.988,3.988,3.988,0,3.9156,3.9259,3.9265,3.934,3.9377,3.9358,3.944,3.9474,3.9544,3.9569,3.9541,3.9673,3.9706,3.9816,3.9849,3.9877,3.9897,3.9862,4.0005,4.0018,4.0031,4.0073,4.0091,3.9884,3.9884,3.9883,3.9883,0,3.9321,3.9393,3.9453,3.9521,3.9565,3.9644,3.9659,3.9703,3.97,3.9716,3.9809,3.9847,3.9912,3.9939,3.9936,4.0048,4.0031,4.0004,3.9951,4.0053,4.0092,4.0109,3.989,3.9888,3.9887,3.9886,0,0,3.9479,3.9548,3.957,3.9599,3.9656,3.971,3.9787,3.9851,3.9887,3.9936,3.9997,4.0088,4.0063,4.0099,4.01,4.015,4.0251,4.0117,4.0118,4.0137,4.0373,4.039,4.041,4.024,4.0243,4.0246,4.0368,0,3.9605,3.974,3.9747,3.9869,3.9933,3.9914,3.998,4.0021,4.0038,4.0093,4.0111,4.0174,4.0138,4.0159,4.0208,4.0228,4.0298,4.022,4.0294,4.0297,4.0279,4.0431,4.0451,4.0564,4.0384,4.0387,4.0389,0,3.9771,3.9825,3.9953,3.9998,4.0025,4.0084,4.0142,4.0196,4.0241,4.0249,4.0289,4.0282,4.0357,4.0304,4.0406,4.0353,4.0384,4.0398,4.0402,4.0407,4.0346,4.0436,4.0601,4.0616,4.0414,4.0412,4.041,0,3.9868,3.9973,4.0062,4.0088,4.0144,4.0185,4.021,4.0252,4.0289,4.034,4.0363,4.0422,4.0453,4.0498,4.0505,4.0467,4.0606,4.0554,4.0612,4.0612,4.064,4.0637,4.0808,4.0666,4.0665,4.0665,4.0665,0,4.0007,4.0085,4.0106,4.016,4.0246,4.0253,4.0337,4.0359,4.0396,4.0452,4.0441,4.0494,4.0503,4.0557,4.0564,4.0644,4.066,4.0666,4.0666,4.0666,4.0664,4.0683,4.0674,4.067,4.0669,4.0668,4.0667,0,4.0129,4.0147,4.0242,4.0287,4.03,4.0361,4.0398,4.0449,4.0465,4.0536,4.0553,4.0577,4.064,4.0653,4.0728,4.0732,4.0828,4.0822,4.0813,4.0811,4.0866,4.086,4.1052,4.1076,4.0922,4.0923,4.0925,0,4.0215,4.0274,4.0325,4.0363,4.039,4.0451,4.0488,4.0497,4.0536,4.0591,4.0634,4.0696,4.0746,4.0847,4.087,4.0926,4.0919,4.0983,4.0927,4.0923,4.0916,4.0911,4.0915,4.0992,4.0994,4.0995,4.0997,0,4.0364,4.0369,4.0425,4.0483,4.0529,4.0575,4.0619,4.065,4.0663,4.0708,4.0773,4.0811,4.0887,4.0948,4.1004,4.1027,4.1013,4.1014,4.103,4.1028,4.1018,4.102,4.0838,4.1009,4.1008,4.1007,4.1006,4.1006,4.0468,4.0518,4.0562,4.0623,4.0657,4.0698,4.0747,4.0768,4.0823,4.0886,4.0887,4.0957,4.0997,4.1071,4.1098,4.1151,4.1131,4.1155,4.116,4.1165,4.1168,4.1013,4.1162,4.1162,4.1161,4.1161,4.1161,0,4.0613,4.0639,4.0696,4.0758,4.0805,4.079,4.0837,4.0877,4.0939,4.0979,4.1028,4.1101,4.1159,4.1186,4.1243,4.128,4.1275,4.1294,4.129,4.1294,4.1185,4.1164,4.1297,4.1297,4.1297,4.1297,4.1297,4.1297,4.0694,4.0777,4.0788,4.0887,4.0913,4.0982,4.1009,4.1046,4.1077,4.1159,4.1207,4.1225,4.1259,4.1318,4.137,4.1376,4.1396,4.1417,4.142,4.1317,4.1303,4.1289,4.1269,4.1423,4.1423,4.1525,4.1526,4.1527]},{"header":{"parameterUnit":"m.s-1","parameterCategory":1,"la1":30.2991,"la2":30.254,"lo1":-89.0895,"lo2":-89.0444,"dy":0.0017,"dx":0.0017,"nx":28,"ny":28,"refTime":"2024-07-12T21:00:00:Z","depth":0,"parameterNumber":3,"parameterNumberName":"V-component_of_WINDS"},"data":[0,0,0,0,0,0,0,0,0,0,0,0,0,0,0,0,0,0,0,0,0,0,0,0,0,0,0,0,0,0,0,0,0,0,0,0,0,0,0,0,0,0,0,0,0,0,0,0,0,0,0,0,0,0,0,0,0,0,3.0767,3.0768,0,3.0928,3.093,3.0931,3.099,3.0989,3.0989,3.0988,3.1144,3.1148,3.1153,0,0,0,0,0,0,0,0,0,0,0,0,0,3.0501,3.0505,3.0767,3.0769,3.0771,3.0927,3.093,3.0932,3.099,3.0989,3.0989,3.0988,3.1142,3.1148,3.1153,0,0,0,0,0,0,0,0,0,0,0,0,0,3.0634,3.0507,3.0766,3.0819,3.0825,3.0927,3.093,3.0932,3.099,3.0989,3.0989,3.0988,3.114,3.1147,3.1154,3.1212,0,0,3.1175,3.1178,0,0,0,0,0,0,0,0,3.0626,3.0644,3.0809,3.0815,3.0823,3.0938,3.0893,3.1026,3.099,3.0927,3.0988,3.0987,3.1075,3.1088,3.1119,3.122,3.1226,3.1176,3.118,3.1183,3.1185,0,0,0,0,0,0,0,3.0617,3.0637,3.083,3.0811,3.082,3.0831,3.085,3.0918,3.1003,3.0933,3.0937,3.0956,3.1079,3.1112,3.1123,3.1229,3.1176,3.1182,3.1186,3.1189,3.1384,3.1385,0,0,0,0,0,0,3.06,3.0629,3.0825,3.0835,3.0721,3.0837,3.0857,3.0902,3.1003,3.1018,3.0957,3.0958,3.1101,3.1115,3.1129,3.1204,3.1183,3.1189,3.1193,3.1383,3.1385,3.1386,0,0,0,0,0,0,3.0594,3.0617,3.0818,3.0733,3.076,3.0842,3.0892,3.0905,3.0939,3.1021,3.1036,3.0976,3.1101,3.1119,3.1192,3.121,3.1193,3.1199,3.1382,3.1384,3.1385,3.1354,0,0,0,0,0,0,3.0587,3.0615,3.064,3.0734,3.0764,3.0881,3.0893,3.0909,3.0952,3.0956,3.1043,3.1057,3.1102,3.1181,3.1199,3.1219,3.1204,3.1381,3.1383,3.1385,3.1354,3.1354,3.1355,0,0,0,0,0,3.0577,3.0623,3.0641,3.0664,3.0798,3.0882,3.0899,3.0953,3.0953,3.0978,3.103,3.1054,3.1205,3.1188,3.1208,3.1231,3.138,3.1382,3.1384,3.1353,3.1354,3.1355,0,0,0,0,0,0,3.0526,3.0636,3.0657,3.0736,3.08,3.0892,3.0925,3.0952,3.1015,3.1015,3.1076,3.1095,3.1163,3.1204,3.1183,3.1293,3.1294,3.13,3.1263,3.1265,3.1265,3.1253,3.121,0,0,0,0,0,3.0524,3.0587,3.0678,3.0738,3.077,3.0841,3.088,3.0916,3.0983,3.101,3.1068,3.1129,3.1191,3.123,3.1291,3.136,3.1379,3.1386,3.1386,3.1386,3.1391,3.1429,3.1433,3.1393,3.1393,3.1393,0,0,3.052,3.0588,3.0623,3.073,3.0783,3.0844,3.0864,3.0926,3.0971,3.1018,3.1091,3.1136,3.1209,3.128,3.1313,3.1316,3.1406,3.1389,3.1389,3.1393,3.1432,3.1436,3.1439,3.1395,3.1395,3.1394,0,0,3.0544,3.0603,3.0659,3.0713,3.0796,3.0844,3.0857,3.0946,3.0978,3.1053,3.109,3.1142,3.1247,3.1298,3.1337,3.138,3.1403,3.1398,3.14,3.1437,3.144,3.1443,3.1458,3.1462,3.1402,3.1402,3.1402,0,3.0528,3.0624,3.0684,3.0746,3.0791,3.084,3.0896,3.0944,3.104,3.1069,3.1071,3.1205,3.1257,3.134,3.1351,3.1381,3.1397,3.1388,3.1436,3.1439,3.1443,3.1457,3.1463,3.1401,3.1401,3.1401,3.1402,0,3.06,3.0665,3.07,3.0796,3.0845,3.0903,3.0969,3.1011,3.1042,3.1089,3.1163,3.1228,3.1303,3.1326,3.1356,3.1413,3.1412,3.1424,3.1426,3.1444,3.1459,3.1465,3.1399,3.14,3.14,3.1401,0,0,3.0595,3.0725,3.0736,3.078,3.0875,3.0925,3.0984,3.1061,3.1095,3.116,3.121,3.1298,3.131,3.1354,3.1391,3.1423,3.1453,3.1431,3.1434,3.1432,3.1518,3.1508,3.1513,3.1469,3.147,3.1471,3.1512,0,3.0631,3.0744,3.0799,3.0886,3.0946,3.0993,3.1045,3.1107,3.1152,3.1207,3.1255,3.1317,3.1329,3.1356,3.139,3.1442,3.147,3.144,3.1514,3.1516,3.1493,3.1521,3.1511,3.1546,3.1518,3.1519,3.1519,0,3.0688,3.0756,3.085,3.0937,3.0965,3.101,3.1085,3.1138,3.1208,3.1238,3.1289,3.1325,3.1386,3.1385,3.147,3.1447,3.1481,3.151,3.1513,3.1521,3.1518,3.1529,3.1558,3.1563,3.1529,3.1528,3.1528,0,3.0675,3.0789,3.086,3.0896,3.1,3.1031,3.1075,3.1145,3.1188,3.1252,3.1279,3.1348,3.1386,3.1437,3.149,3.1484,3.1569,3.1572,3.1594,3.1592,3.1609,3.1607,3.1642,3.1631,3.1631,3.1631,3.1631,0,3.0709,3.0764,3.0856,3.0899,3.0961,3.1024,3.1083,3.113,3.1192,3.1243,3.1287,3.1334,3.1401,3.1455,3.1496,3.1559,3.1576,3.16,3.161,3.1596,3.1593,3.1618,3.1617,3.1633,3.1632,3.1632,3.1632,0,3.0704,3.0768,3.0848,3.0941,3.0966,3.1007,3.1085,3.1128,3.1175,3.124,3.1258,3.1332,3.1398,3.1456,3.1542,3.157,3.1635,3.1647,3.1612,3.1617,3.1635,3.1632,3.1688,3.1698,3.168,3.168,3.168,0,3.0721,3.0765,3.0863,3.0903,3.0947,3.1009,3.1054,3.1116,3.1159,3.1243,3.1275,3.1345,3.1404,3.1507,3.1567,3.1633,3.1647,3.1662,3.1657,3.1641,3.1646,3.1643,3.1647,3.1661,3.1661,3.1661,3.1661,0,3.0744,3.0774,3.0838,3.0913,3.0966,3.1027,3.1089,3.1117,3.1191,3.1237,3.1307,3.1353,3.1443,3.1511,3.1584,3.1627,3.1655,3.1662,3.1671,3.1656,3.1633,3.1645,3.1611,3.166,3.166,3.166,3.166,3.166,3.0751,3.0792,3.0868,3.0937,3.0991,3.1049,3.1093,3.1148,3.1208,3.1288,3.132,3.1391,3.1459,3.1561,3.1603,3.1657,3.1662,3.1674,3.1677,3.1679,3.1676,3.1626,3.1671,3.1671,3.1671,3.1671,3.1671,0,3.0776,3.0827,3.0891,3.0978,3.1032,3.1058,3.1128,3.117,3.1233,3.1296,3.1354,3.1434,3.15,3.1565,3.1635,3.1665,3.168,3.1681,3.1679,3.1688,3.1669,3.1654,3.1668,3.1668,3.1668,3.1668,3.1668,3.1668,3.0795,3.0866,3.0905,3.1002,3.1053,3.1125,3.1163,3.1215,3.1265,3.1353,3.141,3.1453,3.1516,3.1591,3.1652,3.1669,3.1692,3.169,3.171,3.169,3.169,3.1689,3.1676,3.1694,3.1694,3.1725,3.1725,3.1725]}]]